Home   Weather   Karaganda   Past weeks
Flag for Kazakhstan

Past Weather in Karaganda, Kazakhstan — Yesterday and Last 2 Weeks

Now
23 °F

Clear.


Feels Like: 14 °F
Forecast: 23 / 10 °F
Wind: 8 mph from East

Location: Karaganda

Current Time: Feb 21, 2020 at 11:55:40 pm

Latest Report: Feb 21, 2020 at 11:30 pm


Visibility: 10 mi

Pressure: 29.92 "Hg (27.88 "Hg at 555m altitude)

Humidity: 93%

Dew Point: 21 °F

Location of KaragandaLocation

Past Weather in Karaganda — Graph

°F

Karaganda Temperature Yesterday

Maximum temperature yesterday: 28 °F (at 1:00 pm)
Minimum temperature yesterday: 16 °F (at 7:00 am)
Average temperature yesterday: 21 °F

High & Low Weather Summary for the Past Weeks

 TemperatureHumidityPressure
High39 °F (Feb 8, 12:00 pm)100% (Feb 9, 5:00 pm)30.48 "Hg (Feb 9, 5:00 pm)
Low-15 °F (Feb 11, 1:00 am)50% (Feb 13, 4:30 am)29.39 "Hg (Feb 9, 12:00 pm)
Average17 °F81%30.16 "Hg
* Reported Feb 6 11:00 pm — Feb 21 11:00 pm, Karaganda. Weather by CustomWeather, © 2020

Note: Actual official high and low records may vary slightly from our data, if they occured in-between our weather recording intervals... More about our weather records

Karaganda Weather History for the Previous 24 Hours

Scroll right to see more
 ConditionsComfort  
Time TempWeatherWind HumidityBarometerVisibility
11:00 pm
Fri, Feb 21
23 °FClear.8 mph93%29.92 "Hg10 mi
10:30 pm23 °FClear.8 mph93%29.95 "Hg10 mi
10:00 pm23 °FClear.8 mph93%29.92 "Hg10 mi
9:30 pm25 °FClear.6 mph86%29.92 "Hg10 mi
9:00 pm25 °FClear.8 mph86%29.92 "Hg10 mi
8:30 pm25 °FClear.8 mph86%29.95 "Hg10 mi
8:00 pm25 °FClear.10 mph93%29.95 "Hg10 mi
7:30 pm25 °FSunny.6 mph93%29.95 "Hg10 mi
7:00 pm27 °FSunny.8 mph86%29.95 "Hg10 mi
6:30 pm27 °FSunny.6 mph86%29.95 "Hg10 mi
6:00 pm27 °FSunny.10 mph86%29.95 "Hg10 mi
5:30 pm27 °FSunny.6 mph86%29.95 "Hg10 mi
5:00 pm30 °FSunny.3 mph75%29.95 "Hg10 mi
4:30 pm32 °FPassing clouds.3 mph69%29.95 "HgN/A
3:30 pm34 °FPassing clouds.6 mph60%29.98 "HgN/A
3:00 pm36 °FPassing clouds.3 mph52%30.01 "HgN/A
2:30 pm34 °FPassing clouds.6 mph56%30.01 "HgN/A
2:00 pm34 °FPassing clouds.6 mph56%30.01 "HgN/A
1:30 pm34 °FSunny.3 mph56%30.01 "Hg10 mi
1:00 pm34 °FPassing clouds.6 mph56%30.04 "HgN/A
12:30 pm32 °FSunny.3 mph60%30.04 "Hg10 mi
12:00 pm30 °FPassing clouds.6 mph64%30.04 "HgN/A
11:30 am27 °FPassing clouds.6 mph69%30.07 "HgN/A
11:00 am27 °FPassing clouds.6 mph69%30.07 "HgN/A
10:30 am23 °FPassing clouds.6 mph68%30.07 "HgN/A
10:00 am25 °FPassing clouds.3 mph63%30.07 "HgN/A
9:30 am25 °FSunny.3 mph63%30.07 "Hg10 mi
9:00 am21 °FPassing clouds.6 mph68%30.09 "HgN/A
8:30 am23 °FPassing clouds.3 mph68%30.09 "HgN/A
8:00 am23 °FClear.1 mph68%30.09 "Hg10 mi
7:30 am25 °FPassing clouds.13 mph63%30.09 "HgN/A
7:00 am25 °FClear.8 mph63%30.12 "Hg10 mi
6:30 am21 °FPassing clouds.6 mph74%30.12 "HgN/A
6:00 am21 °FPassing clouds.6 mph74%30.12 "HgN/A
5:30 am19 °FPassing clouds.6 mph73%30.12 "HgN/A
5:00 am21 °FPassing clouds.6 mph74%30.15 "HgN/A
4:30 am21 °FClear.8 mph74%30.15 "Hg10 mi
4:00 am21 °FClear.8 mph74%30.15 "Hg10 mi
3:30 am21 °FClear.6 mph74%30.15 "Hg10 mi
3:00 am21 °FPassing clouds.8 mph74%30.18 "HgN/A
2:30 am21 °FClear.8 mph68%30.18 "Hg10 mi
2:00 am21 °FClear.15 mph74%30.21 "Hg10 mi
1:30 am19 °FClear.15 mph73%30.21 "Hg10 mi
1:00 am19 °FClear.20 mph73%30.21 "Hg10 mi
12:30 am19 °FClear.15 mph73%30.24 "Hg10 mi
12:00 am19 °FClear.17 mph68%30.24 "Hg10 mi
11:30 pm
Thu, Feb 20
19 °FClear.20 mph68%30.24 "Hg10 mi
11:00 pm19 °FClear.17 mph68%30.24 "Hg10 mi
Weather by CustomWeather, © 2020

See weather overview

Advertising